TimeEDT,TemperatureF,Dew PointF,Humidity,Sea Level PressureIn,VisibilityMPH,Wind Direction,Wind SpeedMPH,Gust SpeedMPH,PrecipitationIn,Events,Conditions,WindDirDegrees,DateUTC
12:03 AM,53.6,51.8,94,30.01,7.0,Calm,Calm,-,N/A,,Mostly Cloudy,0,2013-05-09 04:03:00
12:43 AM,53.6,51.8,94,30.01,7.0,Calm,Calm,-,N/A,,Mostly Cloudy,0,2013-05-09 04:43:00
1:03 AM,53.6,51.8,94,30.00,5.0,Calm,Calm,-,N/A,,Scattered Clouds,0,2013-05-09 05:03:00
1:23 AM,53.6,51.8,94,30.00,5.0,Calm,Calm,-,N/A,,Mostly Cloudy,0,2013-05-09 05:23:00
1:43 AM,53.6,51.8,94,29.99,5.0,Calm,Calm,-,N/A,,Scattered Clouds,0,2013-05-09 05:43:00
2:03 AM,53.6,51.8,94,29.98,7.0,SSE,3.5,-,N/A,,Scattered Clouds,160,2013-05-09 06:03:00
2:23 AM,51.8,51.8,100,29.97,10.0,SSE,3.5,-,N/A,,Scattered Clouds,150,2013-05-09 06:23:00
2:43 AM,51.8,51.8,100,29.96,10.0,Calm,Calm,-,N/A,,Mostly Cloudy,0,2013-05-09 06:43:00
3:04 AM,51.8,51.8,100,29.96,10.0,Calm,Calm,-,N/A,,Overcast,0,2013-05-09 07:04:00
3:24 AM,51.8,51.8,100,29.96,7.0,Calm,Calm,-,N/A,,Overcast,0,2013-05-09 07:24:00
3:44 AM,51.8,51.8,100,29.96,7.0,Calm,Calm,-,N/A,,Overcast,0,2013-05-09 07:44:00
4:04 AM,51.8,51.8,100,29.96,5.0,Calm,Calm,-,N/A,,Overcast,0,2013-05-09 08:04:00
4:24 AM,51.8,51.8,100,29.95,5.0,Calm,Calm,-,N/A,,Overcast,0,2013-05-09 08:24:00
4:44 AM,51.8,51.8,100,29.95,7.0,Calm,Calm,-,N/A,,Overcast,0,2013-05-09 08:44:00
5:24 AM,51.8,51.8,100,29.96,7.0,Calm,Calm,-,N/A,,Overcast,0,2013-05-09 09:24:00
5:44 AM,51.8,51.8,100,29.96,7.0,Calm,Calm,-,N/A,,Overcast,0,2013-05-09 09:44:00
6:04 AM,51.8,51.8,100,29.97,10.0,Calm,Calm,-,N/A,,Overcast,0,2013-05-09 10:04:00
6:24 AM,51.8,51.8,100,29.98,7.0,Calm,Calm,-,N/A,,Overcast,0,2013-05-09 10:24:00
6:44 AM,51.8,51.8,100,29.98,5.0,Calm,Calm,-,N/A,,Mostly Cloudy,0,2013-05-09 10:44:00
7:04 AM,51.8,51.8,100,29.99,5.0,Calm,Calm,-,N/A,,Scattered Clouds,0,2013-05-09 11:04:00
7:24 AM,51.8,51.8,100,29.99,5.0,Calm,Calm,-,N/A,,Scattered Clouds,0,2013-05-09 11:24:00
8:04 AM,53.6,51.8,94,30.01,5.0,Calm,Calm,-,N/A,,Overcast,0,2013-05-09 12:04:00
8:44 AM,53.6,51.8,94,30.03,7.0,Calm,Calm,-,N/A,,Mostly Cloudy,0,2013-05-09 12:44:00
9:04 AM,57.2,53.6,88,30.02,5.0,SSE,3.5,-,N/A,,Overcast,150,2013-05-09 13:04:00
9:24 AM,60.8,53.6,77,30.02,7.0,Calm,Calm,-,N/A,,Scattered Clouds,0,2013-05-09 13:24:00
9:44 AM,59.0,53.6,82,30.03,10.0,Calm,Calm,-,N/A,,Mostly Cloudy,0,2013-05-09 13:44:00
10:04 AM,59.0,55.4,88,30.03,10.0,Calm,Calm,-,N/A,,Mostly Cloudy,0,2013-05-09 14:04:00
10:24 AM,62.6,55.4,77,30.02,10.0,Calm,Calm,-,N/A,,Mostly Cloudy,0,2013-05-09 14:24:00
11:04 AM,66.2,51.8,60,30.02,10.0,NW,6.9,-,N/A,,Scattered Clouds,310,2013-05-09 15:04:00
11:25 AM,68.0,51.8,56,30.02,10.0,West,6.9,-,N/A,,Scattered Clouds,270,2013-05-09 15:25:00
11:45 AM,68.0,51.8,56,30.02,10.0,WNW,8.1,-,N/A,,Scattered Clouds,290,2013-05-09 15:45:00
12:05 PM,69.8,51.8,53,30.02,10.0,WNW,10.4,-,N/A,,Mostly Cloudy,290,2013-05-09 16:05:00
1:05 PM,69.8,51.8,53,30.02,10.0,WNW,5.8,18.4,N/A,,Scattered Clouds,300,2013-05-09 17:05:00
1:25 PM,69.8,50.0,49,30.02,10.0,Calm,Calm,-,N/A,,Mostly Cloudy,0,2013-05-09 17:25:00
1:45 PM,69.8,50.0,49,30.02,10.0,NNW,5.8,-,N/A,,Mostly Cloudy,330,2013-05-09 17:45:00
2:05 PM,69.8,50.0,49,30.02,10.0,West,3.5,-,N/A,,Mostly Cloudy,260,2013-05-09 18:05:00
2:25 PM,69.8,50.0,49,30.02,10.0,North,8.1,-,N/A,,Mostly Cloudy,350,2013-05-09 18:25:00
2:45 PM,71.6,50.0,46,30.01,10.0,NNW,3.5,-,N/A,,Scattered Clouds,340,2013-05-09 18:45:00
3:05 PM,71.6,48.2,43,30.00,10.0,WNW,6.9,-,N/A,,Scattered Clouds,300,2013-05-09 19:05:00
3:25 PM,71.6,50.0,46,30.00,10.0,WNW,10.4,20.7,N/A,,Clear,290,2013-05-09 19:25:00
3:45 PM,71.6,50.0,46,30.00,10.0,West,5.8,-,N/A,,Scattered Clouds,280,2013-05-09 19:45:00
4:05 PM,71.6,50.0,46,29.99,10.0,West,6.9,-,N/A,,Scattered Clouds,260,2013-05-09 20:05:00
4:25 PM,71.6,51.8,50,29.99,10.0,Calm,Calm,-,N/A,,Scattered Clouds,0,2013-05-09 20:25:00
4:45 PM,71.6,50.0,46,29.99,10.0,West,11.5,17.3,N/A,,Scattered Clouds,260,2013-05-09 20:45:00
5:05 PM,71.6,50.0,46,30.01,10.0,West,9.2,21.9,N/A,,Scattered Clouds,270,2013-05-09 21:05:00
5:25 PM,69.8,50.0,49,30.00,10.0,West,6.9,-,N/A,,Clear,280,2013-05-09 21:25:00
5:45 PM,69.8,50.0,49,30.00,10.0,NW,3.5,-,N/A,,Scattered Clouds,310,2013-05-09 21:45:00
6:05 PM,71.6,50.0,46,29.99,10.0,NW,4.6,-,N/A,,Clear,320,2013-05-09 22:05:00
6:25 PM,73.4,50.0,44,29.99,10.0,NW,4.6,-,N/A,,Clear,320,2013-05-09 22:25:00
6:45 PM,73.4,50.0,44,29.99,10.0,Calm,Calm,-,N/A,,Scattered Clouds,0,2013-05-09 22:45:00
7:05 PM,73.4,50.0,44,29.99,10.0,Calm,Calm,-,N/A,,Clear,0,2013-05-09 23:05:00
7:25 PM,71.6,53.6,53,29.99,10.0,Calm,Calm,-,N/A,,Clear,0,2013-05-09 23:25:00
7:45 PM,69.8,53.6,56,30.00,10.0,Calm,Calm,-,N/A,,Clear,0,2013-05-09 23:45:00
8:05 PM,68.0,51.8,56,30.02,10.0,Calm,Calm,-,N/A,,Clear,0,2013-05-10 00:05:00
8:26 PM,64.4,51.8,64,30.03,10.0,SSW,5.8,-,N/A,,Clear,210,2013-05-10 00:26:00
8:46 PM,64.4,53.6,68,30.04,10.0,SSE,3.5,-,N/A,,Clear,150,2013-05-10 00:46:00
9:06 PM,62.6,53.6,72,30.04,7.0,Calm,Calm,-,N/A,,Scattered Clouds,0,2013-05-10 01:06:00
9:26 PM,62.6,53.6,72,30.05,10.0,Calm,Calm,-,N/A,,Scattered Clouds,0,2013-05-10 01:26:00
9:46 PM,62.6,53.6,72,30.06,10.0,Calm,Calm,-,N/A,,Scattered Clouds,0,2013-05-10 01:46:00
10:06 PM,60.8,53.6,77,30.05,10.0,Calm,Calm,-,N/A,,Scattered Clouds,0,2013-05-10 02:06:00
10:26 PM,60.8,53.6,77,30.05,10.0,Calm,Calm,-,N/A,,Clear,0,2013-05-10 02:26:00
10:46 PM,60.8,53.6,77,30.05,10.0,Calm,Calm,-,N/A,,Clear,0,2013-05-10 02:46:00
11:06 PM,59.0,53.6,82,30.05,10.0,Calm,Calm,-,N/A,,Clear,0,2013-05-10 03:06:00
11:26 PM,57.2,53.6,88,30.05,10.0,Calm,Calm,-,N/A,,Clear,0,2013-05-10 03:26:00
11:46 PM,57.2,53.6,88,30.05,10.0,Calm,Calm,-,N/A,,Clear,0,2013-05-10 03:46:00